Location: Kumla
(59.1265°N, 15.1401°E)
Time: 09:16:09
(UTC+01:00)

Transit 2A - Pass Details

Date: 04 December 2023
Orbit: 600 x 953 km, 66.7° (Epoch: 22 February)

Event Time Altitude Azimuth Distance (km) Brightness Sun altitude
Rises 23:29:45 0° 310° (NW) 2,895 - -53.0°
Reaches altitude 10° 23:32:04 10° 307° (NW) 1,967 - -53.0°
Maximum altitude 23:36:21 58° 229° (SW) 707 - -53.1°
Drops below altitude 10° 23:40:38 10° 150° (SSE) 1,959 - -53.1°
Sets 23:42:55 0° 147° (SSE) 2,882 - -53.2°
